Regional Weather Roundup
Issued by NWS

Home | Current Version | Previous Version | Text Only | Print | Product List | Glossary On
Versions: 1 2 3 4 5 6 7 8 9 10 11 12 13 14 15 16 17 18 19 20 21 22 23 24 25 26 27 28 29 30 31 32 33 34 35 36 37 38 39 40 41 42 43 44 45 46 47 48 49 50
000
ASUS44 KFWD 290101
RWRTX
NORTH TEXAS HOURLY WEATHER ROUNDUP
NATIONAL WEATHER SERVICE FORT WORTH TX
800 PM CDT TUE MAR 28 2017

NOTE: "FAIR" INDICATES FEW OR NO CLOUDS BELOW 12,000 FEET WITH NO
SIGNIFICANT WEATHER AND/OR OBSTRUCTIONS TO VISIBILITY.

TXZ118-119-290200-
DALLAS/FORT WORTH METROPLEX

CITY           SKY/WX    TMP DP  RH WIND       PRES   REMARKS
DFW AIRPORT    CLOUDY    81  63  54 SE16      29.65R
DALLAS LOVE    MOCLDY    80  63  55 SE17      29.66S
FTW MEACHAM    CLOUDY    80  60  50 SE17G25   29.65R
DAL-EXECUTIVE  MOCLDY    79  63  57 SE13G25   29.66F
FTW-ALLIANCE   CLOUDY    79  63  57 SE18G28   29.66R
FTW-NAS-JRB    CLOUDY    81  61  50 SE20G31   29.66R
FTW-SPINKS     CLOUDY    78  61  55 SE14G24   29.67R
ARLINGTON      MOCLDY    79  62  56 SE17G24   29.66S
GRAND PRAIRIE  MOCLDY    79  61  53 SE10G21   29.68S
ADDISON        PTCLDY    79  63  57 SE14G22   29.67F
MESQUITE       PTCLDY    79  61  53 SE14      29.69S
LANCASTER      PTCLDY    77  62  61 SE14      29.68F
$$

TXZ091>094-102>105-117-120-121-131>134-290200-
NORTH CENTRAL TEXAS

CITY           SKY/WX    TMP DP  RH WIND       PRES   REMARKS
SHRMAN/DENISON PTCLDY    73  64  73 E10G17    29.71S
GAINESVILLE    CLOUDY    73  64  71 SE15      29.70R
BOWIE          CLOUDY    74  65  73 E8        29.65F
BRIDGEPORT     CLOUDY    77  61  57 SE12G20   29.66R
DECATUR        CLOUDY    76  62  61 SE13G21   29.66S
DENTON         CLOUDY    78  64  61 SE12      29.66R
MCKINNEY       MOCLDY    77  65  66 SE10      29.68F
BONHAM         MOCLDY    73  64  73 E12       29.72S
ROCKWALL       MOCLDY    78  62  57 SE10G21   29.70S
TERRELL        CLEAR     79  59  50 SE17G24   29.70F
WAXAHACHIE     MOCLDY    78  63  60 SE15G25   29.68F
CLEBURNE       CLOUDY    79  63  57 SE17G30   29.67R
GRANBURY       CLOUDY    79  63  56 SE12      29.66R
$$

TXZ083>090-098>101-113>116-127>130-139>142-154-155-290200-
WESTERN NORTH TEXAS

CITY           SKY/WX    TMP DP  RH WIND       PRES   REMARKS
WICHITA FALLS  CLOUDY    71  64  78 E16       29.62S THUNDER
WF-KICKAPOO    CLOUDY    72  65  78 E9G18     29.63S
VERNON           N/A    N/A N/A N/A CALM      29.64F THUNDER
ABILENE        PTCLDY    73  63  70 SE21G31   29.56R
ABILENE-DYESS  PTCLDY    74  64  72 S20G26    29.53F
GRAHAM         CLOUDY    76  64  65 SE15G22   29.59F
BRECKENRIDGE   MOCLDY    79  60  51 SE17G31   29.60R HAZE
CISCO          MOCLDY    77  61  57 S28G41    29.61S
RANGER         CLOUDY    75  61  60 S18G24    29.64R
MINERAL WELLS  CLOUDY    77  63  61 SE18G26   29.63R
STEPHENVILLE   CLOUDY    77  58  50 S18G26    29.68R
COMANCHE       PTCLDY    76  57  51 S21G36    29.65R
$$

TXZ143>147-156>162-174-175-290200-
CENTRAL TEXAS

CITY           SKY/WX    TMP DP  RH WIND       PRES   REMARKS
WACO           MOCLDY    78  61  55 SE17      29.67S
WACO-MCGREGOR  PTCLDY    77  60  55 SE14      29.68S
HILLSBORO      PTCLDY    78  63  60 SE16G25   29.67F
CORSICANA      PTCLDY    78  61  55 SE14G21   29.72R
MEXIA          PTCLDY    77  60  56 SE15G26   29.70S
HEARNE         CLEAR     76  64  65 SE12G17   29.72R
CAMERON        CLEAR     78  62  56 SE13G22   29.69F
TEMPLE         PTCLDY    77  62  59 SE16      29.69R
KILLEEN        CLOUDY    77  59  53 SE20G31   29.68R
KILLEEN-SKYLRK CLOUDY    78  60  53 SE16G23   29.69R
FORT HOOD      CLOUDY    77  58  51 S14G22    29.66R
GATESVILLE     PTCLDY    79  57  47 S15G23    29.69R
HAMILTON       CLOUDY    77  56  47 S20G32    29.66R
LAMPASAS       CLOUDY    78  62  58 SE17      29.67S
$$

TXZ095>097-106>112-122>126-135>138-148>153-164>167-290200-
EAST TEXAS

CITY           SKY/WX    TMP DP  RH WIND       PRES   REMARKS
PARIS          PTCLDY    72  63  73 E9        29.76F
SULPHUR SPRNGS MOCLDY    75  65  71 E7        29.76S
MOUNT PLEASANT CLEAR     76  64  65 E6        29.77S
GILMER         CLEAR     77  62  58 SE8       29.77R
MINEOLA        CLOUDY    79  63  57 SE5       29.74R
TYLER          CLEAR     77  61  57 S12       29.75R
LONGVIEW       CLEAR     76  63  64 S9        29.76R
MARSHALL       CLEAR     76  59  55 SE6       29.80R
ATHENS         PTCLDY    77  59  53 S10G18    29.72R
PALESTINE      CLEAR     78  62  57 SE9G16    29.76R
JACKSONVILLE   CLEAR     77  58  51 SE10G17   29.79R
HENDERSON      CLEAR     77  58  51 SE10      29.78R
NACOGDOCHES    CLEAR     75  57  53 SE8       29.77R
LUFKIN         CLEAR     76  60  57 SE18G25   29.78S
$$

SUPPLEMENTAL OBSERVATIONS (CENTRAL)

CITY           SKY/WX    TMP DP  RH WIND       PRES   REMARKS
$$

SUPPLEMENTAL OBSERVATIONS (WEST)

CITY           SKY/WX    TMP DP  RH WIND       PRES   REMARKS
$$

SUPPLEMENTAL OBSERVATIONS (EAST)

CITY           SKY/WX    TMP DP  RH WIND       PRES   REMARKS
$$

SUPPLEMENTAL OBSERVATIONS ARE A COLLECTION OF AUTOMATED INSTRUMENTS
THAT ARE MAINTAINED BY A VARIETY OF FEDERAL AND STATE AGENCIES.
CERTAIN ELEMENTS...SUCH AS HUMIDITY VALUES AND SUSTAINED WIND
SPEEDS...MAY BE APPROXIMATED.





USA.gov is the U.S. government's official web portal to all federal, state and local government web resources and services.